This demonstration page uses our WeatherBlox Daily Observations layout. Learn more.

Left ArrowRight Arrow

Hourly Observations for July 10, 2021

Temp ( °F °C ) Dew Point ( °F °C ) Humidity (%) Winds ( mph kmh ) Pressure ( in mb ) Visibility ( mi km ) Precip ( " mm )
12:15 am 00:15 Clear 66 19.1 61 16 82 82 NNE 15 24 29.78 1008 10 16 N/A
12:35 am 00:35 Clear 68 20 60 15.6 76 76 NNE 13 20 29.81 1010 10 16 N/A
12:55 am 00:55 Clear 67 19.4 61 16 81 81 E 5 7 29.83 1010 10 16 N/A
1:15 am 01:15 Clear 67 19.4 61 16.2 82 82 N 13 20 29.84 1010 10 16 N/A
1:35 am 01:35 Clear with Light Rain 69 20.6 65 18.6 88 88 N 21 33 29.86 1011 7 11 0.01 0.25
1:55 am 01:55 Mostly Cloudy 70 21 67 19.5 91 91 N 20 31 29.91 1013 10 16 0.05 1.27
2:15 am 02:15 Cloudy with Rain 69 20.5 66 19.1 92 92 NNW 36 57 29.99 1015 5 8 0.04 1.02
2:35 am 02:35 Cloudy with Rain 66 18.8 62 16.7 88 88 N 28 44 29.99 1016 7 11 0.08 2.03
2:55 am 02:55 Cloudy with Strong Thunderstorms 65 18.5 62 16.4 88 88 NNE 20 31 29.97 1015 5 8 0.16 4.06
3:15 am 03:15 Cloudy 66 18.8 62 16.9 89 89 N 21 33 30.01 1016 10 16 0.01 0.25
3:35 am 03:35 Cloudy with Heavy Rain 66 18.7 64 17.5 93 93 N 24 39 29.99 1016 4 6 0.04 1.02
3:55 am 03:55 Mostly Cloudy with Light Rain 66 18.9 62 16.8 88 88 NE 29 46 29.90 1013 10 16 0.08 2.03
4:15 am 04:15 Clear 67 19.5 60 15.7 79 79 ENE 26 43 29.82 1010 10 16 N/A
4:35 am 04:35 Clear 69 20.4 58 14.7 70 70 ENE 15 24 29.83 1010 10 16 N/A
4:55 am 04:55 Partly Cloudy 69 20.6 58 14.3 67 67 SE 12 19 29.84 1010 10 16 N/A
5:15 am 05:15 Mostly Cloudy with Light Rain 69 20.4 58 14.5 69 69 ESE 5 7 29.87 1011 10 16 N/A
5:35 am 05:35 Mostly Cloudy with Light Rain 66 19.1 60 15.6 80 80 SSE 3 6 29.87 1012 10 16 N/A
5:55 am 05:55 Partly Cloudy with Drizzle 68 20 59 14.9 73 73 ESE 8 13 29.84 1011 10 16 N/A
6:15 am 06:15 Clear 65 18.5 61 16 85 85 NW 7 11 29.91 1013 10 16 N/A
6:35 am 06:35 Sunny 65 18.2 61 16.1 88 88 NW 16 26 29.96 1014 10 16 N/A
6:55 am 06:55 Sunny 66 18.8 60 15.7 82 82 NW 13 20 29.97 1015 10 16 N/A
7:15 am 07:15 Sunny 65 18.2 61 16 87 87 WNW 7 11 29.97 1015 10 16 N/A
7:35 am 07:35 Sunny 65 18.1 62 16.6 91 91 N N/A 29.94 1014 10 16 N/A
7:55 am 07:55 Sunny 65 18.2 63 17 93 93 W 7 11 29.96 1014 10 16 N/A
8:15 am 08:15 Partly Cloudy 66 18.8 63 17.1 90 90 W 6 9 29.97 1015 10 16 N/A
8:35 am 08:35 Sunny 67 19.7 64 17.8 89 89 W 8 13 29.97 1015 10 16 N/A
8:55 am 08:55 Sunny 69 20.4 65 18.1 87 87 NW 10 17 29.96 1015 10 16 N/A
9:15 am 09:15 Mostly Cloudy 70 21.1 65 18.5 85 85 NW 14 22 29.96 1015 10 16 N/A
9:35 am 09:35 Partly Cloudy 72 22.1 66 18.9 82 82 NW 13 20 29.95 1014 10 16 N/A
9:55 am 09:55 Partly Cloudy 73 22.7 66 19 80 80 NW 14 22 29.95 1014 10 16 N/A
10:15 am 10:15 Partly Cloudy 75 23.7 66 18.9 75 75 NNW 14 22 29.93 1014 10 16 N/A
10:35 am 10:35 Partly Cloudy 75 24 66 18.8 73 73 NNW 13 20 29.93 1013 10 16 N/A
10:55 am 10:55 Mostly Cloudy 76 24.4 65 18.2 68 68 NNW 15 24 29.92 1013 10 16 N/A
11:15 am 11:15 Mostly Cloudy 75 23.8 65 18.5 72 72 NNW 15 24 29.94 1014 10 16 N/A
11:35 am 11:35 Mostly Cloudy 77 24.8 65 18.2 67 67 NNW 15 24 29.93 1014 10 16 N/A
11:55 am 11:55 Mostly Cloudy 78 25.3 65 18.3 65 65 NNW 14 22 29.93 1013 10 16 N/A
12:15 pm 12:15 Mostly Cloudy 77 25.2 64 17.6 63 63 NNW 17 28 29.93 1013 10 16 N/A
12:35 pm 12:35 Mostly Cloudy 78 25.6 63 17.4 61 61 NW 15 24 29.91 1013 10 16 N/A
12:55 pm 12:55 Mostly Cloudy 78 25.6 64 17.8 62 62 NNW 18 30 29.91 1013 10 16 N/A
1:15 pm 13:15 Mostly Cloudy 79 25.9 63 17.4 60 60 NNW 21 33 29.91 1013 10 16 N/A
1:35 pm 13:35 Mostly Cloudy 79 26.2 64 17.6 59 59 NW 20 31 29.91 1013 10 16 N/A
1:55 pm 13:55 Cloudy 77 24.9 63 17.2 62 62 NNW 16 26 29.92 1013 10 16 N/A
2:15 pm 14:15 Mostly Cloudy 79 26 63 17.1 58 58 NW 15 24 29.91 1013 10 16 N/A
2:35 pm 14:35 Mostly Cloudy with Rain 68 20.1 62 16.6 80 80 N 16 26 29.97 1015 5 8 0.03 0.76
2:55 pm 14:55 Partly Cloudy 68 19.9 63 17.1 84 84 NNW 13 20 29.97 1015 10 16 0.03 0.76
3:15 pm 15:15 Sunny 74 23.6 67 19.6 78 78 N 12 19 29.93 1014 10 16 N/A
3:35 pm 15:35 Partly Cloudy 76 24.4 65 18.2 68 68 N 17 28 29.92 1013 10 16 N/A
3:55 pm 15:55 Mostly Cloudy 78 25.5 64 17.8 62 62 N 16 26 29.92 1013 10 16 N/A
4:15 pm 16:15 Partly Cloudy 78 25.5 62 16.8 59 59 N 17 28 29.92 1013 10 16 N/A
4:35 pm 16:35 Partly Cloudy 78 25.7 63 17.4 60 60 N 13 20 29.92 1013 10 16 N/A
4:55 pm 16:55 Mostly Cloudy 78 25.4 62 16.9 59 59 N 10 17 29.92 1013 10 16 N/A
5:15 pm 17:15 Partly Cloudy 79 26.1 62 16.7 56 56 N 14 22 29.91 1013 10 16 N/A
5:35 pm 17:35 Partly Cloudy 78 25.5 62 16.5 58 58 N 12 19 29.92 1013 10 16 N/A
5:55 pm 17:55 Sunny 78 25.7 61 16 55 55 N 14 22 29.91 1013 10 16 N/A
6:15 pm 18:15 Partly Cloudy 78 25.3 62 16.9 60 60 N 5 7 29.92 1013 10 16 N/A
6:35 pm 18:35 Partly Cloudy 78 25.6 61 16.2 56 56 N 13 20 29.91 1013 10 16 N/A
6:55 pm 18:55 Partly Cloudy 78 25.5 60 15.4 54 54 N 12 19 29.93 1013 10 16 N/A
7:15 pm 19:15 Partly Cloudy 76 24.6 59 15.2 56 56 N 12 19 29.92 1013 10 16 N/A
7:35 pm 19:35 Sunny 76 24.6 61 16.1 59 59 N 9 15 29.93 1014 10 16 N/A
7:55 pm 19:55 Sunny 75 24.1 60 15.5 59 59 N 10 17 29.94 1014 10 16 N/A
8:15 pm 20:15 Partly Cloudy 74 23.6 60 15.4 60 60 N 10 17 29.94 1014 10 16 N/A
8:35 pm 20:35 Partly Cloudy 73 22.6 60 15.8 66 66 N 9 15 29.95 1014 10 16 N/A
8:55 pm 20:55 Sunny 70 21.3 61 16.3 73 73 N 7 11 29.96 1015 10 16 N/A
9:15 pm 21:15 Clear 70 20.9 60 15.6 72 72 N 9 15 29.97 1015 10 16 N/A
9:35 pm 21:35 Clear 68 20 60 15.4 75 75 N 9 15 29.99 1016 10 16 N/A
9:55 pm 21:55 Clear 66 19.1 60 15.5 80 80 N 8 13 30.01 1016 10 16 N/A
10:15 pm 22:15 Clear 66 19.1 60 15.5 80 80 N 8 13 30.03 1017 10 16 N/A
10:35 pm 22:35 Clear 64 18 60 15.5 85 85 N 5 7 30.04 1017 10 16 N/A
10:55 pm 22:55 Clear 64 18 59 15.1 83 83 N 7 11 30.05 1018 10 16 N/A

Powered by AerisWeather